FW0267 Weather Reports


time (UTC)temp
C
wind
direction
speed
KPH
gust
KPH
rain 1hr
cm
rain 24hr
cm
rain mn
cm
humidity
%
barometer
mb
20260903171518 -17 115 1.6 4.8 0.00 0.00 0.00 1017.0
20260903171016 -17 138 1.6 4.8 0.00 0.00 0.00 1017.0
20260903170515 -17 132 1.6 4.8 0.00 0.00 0.00 1017.1
20260903170018 -17 142 1.6 4.8 0.00 0.00 0.00 1017.1
20260903165511 -17 84 0.0 4.8 0.00 0.00 0.00 1017.1
20260903165013 -17 78 1.6 4.8 0.00 0.00 0.00 1017.1
20260903164509 -17 319 1.6 4.8 0.00 0.00 0.00 1017.2
20260903164007 -17 107 1.6 6.4 0.00 0.00 0.00 1017.3
20260903163505 -17 29 1.6 6.4 0.00 0.00 0.00 1017.2
20260903163005 -17 73 1.6 4.8 0.00 0.00 0.00 1017.3
20260903162502 -17 155 1.6 4.8 0.00 0.00 0.00 1017.3
20260903162003 -17 71 1.6 9.7 0.00 0.00 0.00 1017.4
20260903161601 -17 109 1.6 9.7 0.00 0.00 0.00 1017.4
20260903161103 -17 114 1.6 4.8 0.00 0.00 0.00 1017.5
20260903160557 -17 82 1.6 6.4 0.00 0.00 0.00 1017.4
20260903160055 -17 30 1.6 6.4 0.00 0.00 0.00 1017.6
20260903155558 -17 153 0.0 4.8 0.00 0.00 0.00 1017.6
20260903155053 -17 14 1.6 4.8 0.00 0.00 0.00 1017.8
20260903154551 -17 146 1.6 4.8 0.00 0.00 0.00 1017.7
20260903154050 -17 355 0.0 6.4 0.00 0.00 0.00 1017.9
20260903153547 -17 321 1.6 6.4 0.00 0.00 0.00 1018.0
20260903153051 -17 92 0.0 6.4 0.00 0.00 0.00 1017.9
20260903152545 -17 118 0.0 4.8 0.00 0.00 0.00 1017.9
20260903152047 -17 129 1.6 4.8 0.00 0.00 0.00 1018.0
20260903151542 -17 326 1.6 4.8 0.00 0.00 0.00 1018.0
20260903151041 -17 87 0.0 3.2 0.00 0.00 0.00 1017.9
20260903150539 -17 87 0.0 3.2 0.00 0.00 0.00 1018.0
20260903150038 -17 101 0.0 4.8 0.00 0.00 0.00 1017.9
20260903145536 -17 5 1.6 6.4 0.00 0.00 0.00 1017.9
20260903145035 -17 113 1.6 4.8 0.00 0.00 0.00 1017.7
20260903144534 -17 24 0.0 4.8 0.00 0.00 0.00 1017.8
20260903144033 -17 126 0.0 9.7 0.00 0.00 0.00 1017.6
20260903143530 -17 336 3.2 9.7 0.00 0.00 0.00 1017.7
20260903143028 -17 105 0.0 3.2 0.00 0.00 0.00 1017.3
20260903142527 -17 59 0.0 1.6 0.00 0.00 0.00 1017.3
20260903142028 -17 94 0.0 1.6 0.00 0.00 0.00 1017.3
20260903141524 -17 119 0.0 1.6 0.00 0.00 0.00 1017.3
20260903141023 -17 119 0.0 3.2 0.00 0.00 0.00 1017.4
20260903140522 -17 117 1.6 3.2 0.00 0.00 0.00 1017.3
20260903140036 -17 97 0.0 3.2 0.00 0.00 0.00 1017.4
20260903135519 -17 141 0.0 3.2 0.00 0.00 0.00 1017.3
20260903135022 -17 115 0.0 4.8 0.00 0.00 0.00 1017.3
20260903134520 -17 116 0.0 4.8 0.00 0.00 0.00 1017.3
20260903134021 -17 106 0.0 4.8 0.00 0.00 0.00 1017.4
20260903133512 -17 110 1.6 3.2 0.00 0.00 0.00 1017.4
20260903133012 -17 109 0.0 3.2 0.00 0.00 0.00 1017.4
20260903132510 -17 121 0.0 3.2 0.00 0.00 0.00 1017.4
20260903132010 -17 120 0.0 1.6 0.00 0.00 0.00 1017.5
20260903131509 -17 120 0.0 3.2 0.00 0.00 0.00 1017.6
20260903131005 -17 120 0.0 3.2 0.00 0.00 0.00 1017.7
20260903130506 -17 115 1.6 3.2 0.00 0.00 0.00 1017.8
20260903130003 -17 109 0.0 3.2 0.00 0.00 0.00 1017.8
20260903125502 -17 114 0.0 0.0 0.00 0.00 0.00 1017.9
20260903125101 -17 114 0.0 1.6 0.00 0.00 0.00 1018.0
20260903124607 -17 114 0.0 1.6 0.00 0.00 0.00 1017.9
20260903124056 -17 112 0.0 1.6 0.00 0.00 0.00 1017.9
20260903123556 -17 109 0.0 1.6 0.00 0.00 0.00 1017.9
20260903123053 -17 104 0.0 0.0 0.00 0.00 0.00 1017.9
20260903122552 -17 104 0.0 0.0 0.00 0.00 0.00 1018.0
20260903122050 -17 104 0.0 0.0 0.00 0.00 0.00 1018.0
20260903121549 -17 104 0.0 1.6 0.00 0.00 0.00 1018.1
20260903121047 -17 106 0.0 1.6 0.00 0.00 0.00 1018.0
20260903120546 -17 121 0.0 1.6 0.00 0.00 0.00 1017.9
20260903120047 -17 106 0.0 0.0 0.00 0.00 0.00 1017.9
20260903115547 -17 106 0.0 0.0 0.00 0.00 0.00 1017.8
20260903115042 -17 106 0.0 1.6 0.00 0.00 0.00 1017.8
20260903114541 -17 105 0.0 1.6 0.00 0.00 0.00 1017.7
20260903114038 -17 109 0.0 1.6 0.00 0.00 0.00 1017.7
20260903113537 -17 110 0.0 0.0 0.00 0.00 0.00 1017.7
20260903113036 -17 110 0.0 0.0 0.00 0.00 0.00 1017.5
20260903112536 -17 110 0.0 3.2 0.00 0.00 0.00 1017.5
20260903112033 -17 108 0.0 3.2 0.00 0.00 0.00 1017.5
20260903111535 -17 124 0.0 3.2 0.00 0.00 0.00 1017.5
20260903111031 -17 132 0.0 0.0 0.00 0.00 0.00 1017.4
20260903110529 -17 132 0.0 0.0 0.00 0.00 0.00 1017.3
20260903110027 -17 132 0.0 3.2 0.00 0.00 0.00 1017.2
20260903105525 -17 132 0.0 3.2 0.00 0.00 0.00 1017.3
20260903105024 -17 113 0.0 3.2 0.00 0.00 0.00 1017.4
20260903104524 -17 131 1.6 3.2 0.00 0.00 0.00 1017.3
20260903104027 -17 34 0.0 0.0 0.00 0.00 0.00 1017.3
20260903103521 -17 34 0.0 0.0 0.00 0.00 0.00 1017.3
20260903103019 -17 34 0.0 1.6 0.00 0.00 0.00 1017.2
20260903102518 -17 31 0.0 1.6 0.00 0.00 0.00 1017.2
20260903102019 -17 10 0.0 1.6 0.00 0.00 0.00 1017.2
20260903101514 -17 109 0.0 1.6 0.00 0.00 0.00 1017.2
20260903101012 -17 132 0.0 0.0 0.00 0.00 0.00 1017.1
20260903100511 -17 132 0.0 3.2 0.00 0.00 0.00 1017.1
20260903100010 -17 132 0.0 3.2 0.00 0.00 0.00 1017.2
20260903095508 -17 132 1.6 3.2 0.00 0.00 0.00 1017.3
20260903095007 -17 121 1.6 3.2 0.00 0.00 0.00 1017.4
20260903094511 -17 86 0.0 1.6 0.00 0.00 0.00 1017.4
20260903094004 -17 58 0.0 1.6 0.00 0.00 0.00 1017.3
20260903093503 -17 58 0.0 1.6 0.00 0.00 0.00 1017.3
20260903093004 -17 14 0.0 1.6 0.00 0.00 0.00 1017.2
20260903092559 -17 105 0.0 1.6 0.00 0.00 0.00 1017.2
20260903092058 -17 105 0.0 1.6 0.00 0.00 0.00 1017.1
20260903091556 -17 119 0.0 1.6 0.00 0.00 0.00 1017.0
20260903091055 -17 121 0.0 1.6 0.00 0.00 0.00 1017.0
20260903090554 -17 121 0.0 0.0 0.00 0.00 0.00 1017.0
20260903085551 -17 121 0.0 3.2 0.00 0.00 0.00 1016.8
20260903085050 -17 112 0.0 0.0 0.00 0.00 0.00 1016.9
20260903084549 -17 112 0.0 0.0 0.00 0.00 0.00 1016.9
20260903084045 -17 112 0.0 1.6 0.00 0.00 0.00 1016.9
20260903083544 -17 112 0.0 1.6 0.00 0.00 0.00 1016.9
20260903083056 -17 115 0.0 1.6 0.00 0.00 0.00 1016.7
20260903082541 -17 112 0.0 1.6 0.00 0.00 0.00 1016.8
20260903082040 -17 103 0.0 1.6 0.00 0.00 0.00 1016.9
20260903081539 -17 117 0.0 0.0 0.00 0.00 0.00 1016.8
20260903081036 -17 117 0.0 0.0 0.00 0.00 0.00 1016.9
20260903080538 -17 117 0.0 1.6 0.00 0.00 0.00 1016.9
20260903080035 -17 111 0.0 1.6 0.00 0.00 0.00 1017.0
20260903075533 -17 20 0.0 1.6 0.00 0.00 0.00 1016.9
20260903075031 -17 89 0.0 1.6 0.00 0.00 0.00 1017.0
20260903074529 -17 129 0.0 0.0 0.00 0.00 0.00 1017.1
20260903074028 -17 129 0.0 0.0 0.00 0.00 0.00 1017.1
20260903073527 -17 129 0.0 3.2 0.00 0.00 0.00 1017.0
20260903073024 -17 129 1.6 3.2 0.00 0.00 0.00 1017.1
20260903072523 -17 130 0.0 3.2 0.00 0.00 0.00 1017.1
20260903072025 -17 116 0.0 1.6 0.00 0.00 0.00 1017.0
20260903071521 -17 105 0.0 0.0 0.00 0.00 0.00 1017.2
20260903071019 -17 105 0.0 0.0 0.00 0.00 0.00 1017.2
20260903070517 -17 105 0.0 1.6 0.00 0.00 0.00 1017.2
20260903070020 -17 105 0.0 1.6 0.00 0.00 0.00 1017.3
20260903065515 -17 112 0.0 1.6 0.00 0.00 0.00 1017.3
20260903065012 -17 103 0.0 1.6 0.00 0.00 0.00 1017.2
20260903064511 -17 111 0.0 1.6 0.00 0.00 0.00 1017.2
20260903064010 -17 139 0.0 0.0 0.00 0.00 0.00 1017.2
20260903063508 -17 139 0.0 0.0 0.00 0.00 0.00 1017.2
20260903063006 -17 139 0.0 1.6 0.00 0.00 0.00 1017.2
20260903062505 -17 129 0.0 1.6 0.00 0.00 0.00 1017.3
20260903062005 -17 142 0.0 1.6 0.00 0.00 0.00 1017.3
20260903061503 -17 112 0.0 1.6 0.00 0.00 0.00 1017.3
20260903061000 -17 121 0.0 0.0 0.00 0.00 0.00 1017.3
20260903060600 -17 121 0.0 0.0 0.00 0.00 0.00 1017.2
20260903060134 -17 121 0.0 3.2 0.00 0.00 0.00 1017.4
20260903055556 -17 121 0.0 3.2 0.00 0.00 0.00 1017.5
20260903055056 -17 123 0.0 3.2 0.00 0.00 0.00 1017.6
20260903054554 -17 126 1.6 3.2 0.00 0.00 0.00 1017.6
20260903054054 -17 144 0.0 1.6 0.00 0.00 0.00 1017.6
20260903053553 -17 113 0.0 1.6 0.00 0.00 0.00 1017.6
20260903053050 -17 113 0.0 1.6 0.00 0.00 0.00 1017.8
20260903052551 -17 111 0.0 1.6 0.00 0.00 0.00 1017.7
20260903052051 -17 103 0.0 1.6 0.00 0.00 0.00 1017.7
20260903051552 -17 61 0.0 1.6 0.00 0.00 0.00 1017.8
20260903051045 -17 108 0.0 0.0 0.00 0.00 0.00 1017.7
20260903050543 -17 108 0.0 0.0 0.00 0.00 0.00 1017.8
20260903050042 -17 108 0.0 1.6 0.00 0.00 0.00 1017.8
20260903045540 -17 95 0.0 1.6 0.00 0.00 0.00 1017.6
20260903045038 -17 107 0.0 1.6 0.00 0.00 0.00 1017.7
20260903044540 -17 116 0.0 1.6 0.00 0.00 0.00 1017.6
20260903044036 -17 126 0.0 0.0 0.00 0.00 0.00 1017.6
20260903043534 -17 126 0.0 1.6 0.00 0.00 0.00 1017.5
20260903043032 -17 126 0.0 1.6 0.00 0.00 0.00 1017.6
20260903042531 -17 126 0.0 1.6 0.00 0.00 0.00 1017.4
20260903042030 -17 126 0.0 1.6 0.00 0.00 0.00 1017.3
20260903041528 -17 126 0.0 1.6 0.00 0.00 0.00 1017.3
20260903041027 -17 130 0.0 1.6 0.00 0.00 0.00 1017.2
20260903040525 -17 136 0.0 1.6 0.00 0.00 0.00 1017.4
20260903040037 -17 136 0.0 1.6 0.00 0.00 0.00 1017.3
20260903035523 -17 136 0.0 1.6 0.00 0.00 0.00 1017.3
20260903035024 -17 136 0.0 1.6 0.00 0.00 0.00 1017.4
20260903034523 -17 138 0.0 1.6 0.00 0.00 0.00 1017.2
20260903034022 -17 138 0.0 1.6 0.00 0.00 0.00 1017.2
20260903033523 -17 138 0.0 1.6 0.00 0.00 0.00 1017.2
20260903033023 -17 138 0.0 1.6 0.00 0.00 0.00 1017.2
20260903032524 -17 138 0.0 1.6 0.00 0.00 0.00 1017.2
20260903032022 -17 138 0.0 1.6 0.00 0.00 0.00 1017.3
20260903031531 -17 138 0.0 1.6 0.00 0.00 0.00 1017.3
20260903031022 -17 142 0.0 1.6 0.00 0.00 0.00 1017.2
20260903030522 -17 138 0.0 1.6 0.00 0.00 0.00 1017.2
20260903030022 -17 138 0.0 1.6 0.00 0.00 0.00 1017.3
20260903025521 -17 138 0.0 1.6 0.00 0.00 0.00 1017.4
20260903025022 -17 138 0.0 1.6 0.00 0.00 0.00 1017.2
20260903024521 -17 138 0.0 1.6 0.00 0.00 0.00 1017.5
20260903024020 -17 138 0.0 1.6 0.00 0.00 0.00 1017.6
20260903023520 -17 140 0.0 1.6 0.00 0.00 0.00 1017.6
20260903023024 -17 136 0.0 1.6 0.00 0.00 0.00 1017.6
20260903022521 -17 123 0.0 1.6 0.00 0.00 0.00 1017.6
20260903022020 -17 116 0.0 1.6 0.00 0.00 0.00 1017.6
20260903021521 -17 127 0.0 3.2 0.00 0.00 0.00 1017.6
20260903021019 -17 126 0.0 3.2 0.00 0.00 0.00 1017.6
20260903020520 -17 124 0.0 3.2 0.00 0.00 0.00 1017.6
20260903020019 -17 101 0.0 1.6 0.00 0.00 0.00 1017.7
20260903015519 -17 124 0.0 1.6 0.00 0.00 0.00 1017.7
20260903015019 -17 125 0.0 1.6 0.00 0.00 0.00 1017.6
20260903014518 -17 125 0.0 3.2 0.00 0.00 0.00 1017.6
20260903014018 -17 121 0.0 3.2 0.00 0.00 0.00 1017.9
20260903013519 -17 126 1.6 3.2 0.00 0.00 0.00 1017.9
20260903013019 -17 136 0.0 1.6 0.00 0.00 0.00 1017.9
20260903012517 -17 127 0.0 1.6 0.00 0.00 0.00 1018.1
20260903012020 -17 131 0.0 1.6 0.00 0.00 0.00 1018.0
20260903011518 -17 143 0.0 1.6 0.00 0.00 0.00 1017.9
20260903011018 -17 109 0.0 1.6 0.00 0.00 0.00 1017.8
20260903010517 -17 112 0.0 1.6 0.00 0.00 0.00 1017.8
20260903010036 -17 113 0.0 1.6 0.00 0.00 0.00 1017.8
20260903005517 -17 83 0.0 3.2 0.00 0.00 0.00 1017.5
20260903005017 -17 137 1.6 4.8 0.00 0.00 0.00 1017.6
20260903004517 -17 125 1.6 4.8 0.00 0.00 0.00 1017.6
20260903004016 -17 126 1.6 3.2 0.00 0.00 0.00 1017.6
20260903003517 -17 136 0.0 3.2 0.00 0.00 0.00 1017.7
20260903003016 -17 136 1.6 3.2 0.00 0.00 0.00 1017.6
20260903002519 -17 132 1.6 3.2 0.00 0.00 0.00 1017.6
20260903002016 -17 128 1.6 4.8 0.00 0.00 0.00 1017.7
20260903001528 -17 110 0.0 3.2 0.00 0.00 0.00 1017.6
20260903001017 -17 132 1.6 3.2 0.00 0.00 0.00 1017.3
20260903000518 -17 113 0.0 3.2 0.00 0.00 0.00 1017.2
20260903000016 -17 84 0.0 3.2 0.00 0.00 0.00 1017.2
20260902235516 -17 111 0.0 3.2 0.00 0.00 0.00 1017.3
20260902235018 -17 119 0.0 3.2 0.00 0.00 0.00 1017.2
20260902234526 -17 130 0.0 3.2 0.00 0.00 0.00 1016.8
20260902234018 -17 113 0.0 3.2 0.00 0.00 0.00 1016.9
20260902233515 -17 119 0.0 3.2 0.00 0.00 0.00 1017.0
20260902233014 -17 126 0.0 4.8 0.00 0.00 0.00 1016.9
20260902232514 -17 156 1.6 3.2 0.00 0.00 0.00 1017.1
20260902232015 -17 113 1.6 3.2 0.00 0.00 0.00 1017.3
20260902231529 -17 126 0.0 3.2 0.00 0.00 0.00 1017.5
20260902231014 -17 90 0.0 4.8 0.00 0.00 0.00 1017.8
20260902230514 -17 103 0.0 4.8 0.00 0.00 0.00 1017.4
20260902230014 -17 124 0.0 3.2 0.00 0.00 0.00 1017.3
20260902225514 -17 360 1.6 3.2 0.00 0.00 0.00 1017.2
20260902225017 -17 128 1.6 4.8 0.00 0.00 0.00 1017.1
20260902224513 -17 133 1.6 4.8 0.00 0.00 0.00 1017.7
20260902224013 -17 128 1.6 4.8 0.00 0.00 0.00 1018.1
20260902223512 -17 151 1.6 4.8 0.00 0.00 0.00 1017.9
20260902223013 -17 93 1.6 4.8 0.00 0.00 0.00 1017.9
20260902222511 -17 142 0.0 4.8 0.00 0.00 0.00 1017.8
20260902222012 -17 121 1.6 4.8 0.00 0.00 0.00 1017.6
20260902221516 -17 119 0.0 4.8 0.00 0.00 0.00 1017.9
20260902221012 -17 183 0.0 4.8 0.00 0.00 0.00 1018.2
20260902220614 -17 167 0.0 8.0 0.00 0.00 0.00 1018.1
20260902220025 -17 204 1.6 8.0 0.00 0.00 0.00 1017.9
20260902215510 -17 115 1.6 6.4 0.00 0.00 0.00 1017.9
20260902215014 -17 131 1.6 6.4 0.00 0.00 0.00 1017.9
20260902214510 -17 142 1.6 8.0 0.00 0.00 0.00 1017.9
20260902214008 -17 131 3.2 8.0 0.00 0.00 0.00 1017.7
20260902213511 -17 180 3.2 8.0 0.00 0.00 0.00 1017.7
20260902213009 -17 158 1.6 9.7 0.00 0.00 0.00 1017.9
20260902212509 -17 117 0.0 14.5 0.00 0.00 0.00 1018.0
20260902212013 -17 360 4.8 16.1 0.00 0.00 0.00 1017.8
20260902211512 -17 221 3.2 16.1 0.00 0.00 0.00 1017.9
20260902211008 -17 324 4.8 16.1 0.00 0.00 0.00 1017.7
20260902210508 -17 5 6.4 17.7 0.00 0.00 0.00 1017.9
20260902210009 -17 171 1.6 12.9 0.00 0.00 0.00 1017.9
20260902205508 -17 340 4.8 11.3 0.00 0.00 0.00 1018.1
20260902205011 -17 302 3.2 9.7 0.00 0.00 0.00 1017.8
20260902204509 -17 185 1.6 4.8 0.00 0.00 0.00 1017.5
20260902204012 -17 164 0.0 4.8 0.00 0.00 0.00 1017.2
20260902203506 -17 281 1.6 6.4 0.00 0.00 0.00 1017.3
20260902203006 -17 127 3.2 6.4 0.00 0.00 0.00 1017.3
20260902202508 -17 355 1.6 4.8 0.00 0.00 0.00 1017.4
20260902202003 -17 133 1.6 4.8 0.00 0.00 0.00 1017.4
20260902201502 -17 112 1.6 4.8 0.00 0.00 0.00 1017.4
20260902201101 -17 98 0.0 4.8 0.00 0.00 0.00 1017.5
20260902200601 -17 355 0.0 4.8 0.00 0.00 0.00 1017.5
20260902200058 -17 76 0.0 4.8 0.00 0.00 0.00 1017.5
20260902195600 -17 40 0.0 9.7 0.00 0.00 0.00 1017.5
20260902195055 -17 109 0.0 9.7 0.00 0.00 0.00 1017.4
20260902194554 -17 15 0.0 3.2 0.00 0.00 0.00 1017.4
20260902194052 -17 111 0.0 3.2 0.00 0.00 0.00 1017.2
20260902193550 -17 125 1.6 4.8 0.00 0.00 0.00 1017.2
20260902193049 -17 112 0.0 4.8 0.00 0.00 0.00 1017.3
20260902192547 -17 13 0.0 4.8 0.00 0.00 0.00 1017.3
20260902192051 -17 327 1.6 4.8 0.00 0.00 0.00 1017.3
20260902191549 -17 111 1.6 4.8 0.00 0.00 0.00 1017.3
20260902191043 -17 159 1.6 4.8 0.00 0.00 0.00 1017.4
20260902190541 -17 115 1.6 4.8 0.00 0.00 0.00 1017.5
20260902190040 -17 103 1.6 4.8 0.00 0.00 0.00 1017.7
20260902185540 -17 104 1.6 3.2 0.00 0.00 0.00 1017.7
20260902185043 -17 155 0.0 4.8 0.00 0.00 0.00 1017.8
20260902184539 -17 142 0.0 6.4 0.00 0.00 0.00 1017.7
20260902184039 -17 138 1.6 6.4 0.00 0.00 0.00 1017.9
20260902183538 -17 100 0.0 3.2 0.00 0.00 0.00 1017.8
20260902183037 -17 323 1.6 4.8 0.00 0.00 0.00 1017.9
20260902182534 -17 119 1.6 4.8 0.00 0.00 0.00 1017.9
20260902182034 -17 108 0.0 6.4 0.00 0.00 0.00 1018.0
20260902181532 -17 117 1.6 6.4 0.00 0.00 0.00 1018.1
20260902181034 -17 36 1.6 6.4 0.00 0.00 0.00 1018.0
20260902180528 -17 134 0.0 4.8 0.00 0.00 0.00 1018.0
20260902180028 -17 125 1.6 4.8 0.00 0.00 0.00 1018.1
20260902175526 -17 343 1.6 4.8 0.00 0.00 0.00 1018.0
20260902175025 -17 79 0.0 4.8 0.00 0.00 0.00 1018.0
20260902174526 -17 153 0.0 4.8 0.00 0.00 0.00 1017.9
20260902174023 -17 57 0.0 6.4 0.00 0.00 0.00 1017.9
20260902173520 -17 88 1.6 6.4 0.00 0.00 0.00 1017.9
20260902173030 -17 5 0.0 4.8 0.00 0.00 0.00 1017.9
20260902172519 -17 5 1.6 4.8 0.00 0.00 0.00 1017.9
20260902172016 -17 72 1.6 4.8 0.00 0.00 0.00 1017.8